This is the latest recevied weather packets stored in our database for station/object DO7ZT-13. If no packets are shown the sender has not sent any weather packets the latest 10 day(s).
| Time | Temp. | Humidity | Pressure | Rain* | Wind** | Luminosity | Snow |
|---|---|---|---|---|---|---|---|
| 1777782017 | 15° C | 42% | 1015.8 hPa | 0 mm | 1.34 m/s, 162° | - | - |
| 1777781704 | 15° C | 42% | 1015.8 hPa | 0 mm | 0.89 m/s, 150° | - | - |
| 1777781417 | 15° C | 42% | 1015.8 hPa | 0 mm | 2.24 m/s, 132° | - | - |
| 1777781104 | 15° C | 42% | 1015.8 hPa | 0 mm | 1.79 m/s, 180° | - | - |
| 1777780817 | 15° C | 42% | 1015.8 hPa | 0 mm | 0.89 m/s, 145° | - | - |
| 1777780505 | 15° C | 42% | 1015.8 hPa | 0 mm | 2.68 m/s, 154° | - | - |
| 1777780217 | 15° C | 42% | 1015.8 hPa | 0 mm | 2.24 m/s, 144° | - | - |
| 1777779904 | 15° C | 42% | 1015.8 hPa | 0 mm | 2.24 m/s, 144° | - | - |
| 1777779618 | 15° C | 42% | 1015.8 hPa | 0 mm | 2.68 m/s, 144° | - | - |
| 1777779018 | 15° C | 42% | 1015.7 hPa | 0 mm | 1.34 m/s, 156° | - | - |
| 1777778705 | 15° C | 41% | 1015.7 hPa | 0 mm | 1.79 m/s, 186° | - | - |
| 1777778417 | 15° C | 41% | 1015.7 hPa | 0 mm | 1.79 m/s, 198° | - | - |
| 1777778105 | 15° C | 41% | 1015.8 hPa | 0 mm | 2.68 m/s, 120° | - | - |
| 1777777817 | 13.89° C | 41% | 1015.8 hPa | 0 mm | 0.89 m/s, 150° | - | - |
| 1777777504 | 15° C | 42% | 1015.8 hPa | 0 mm | 1.34 m/s, 144° | - | - |
| 1777777229 | 15° C | 40% | 1015.9 hPa | 0 mm | 1.34 m/s, 132° | - | - |
| 1777776917 | 15° C | 40% | 1015.9 hPa | 0 mm | 1.79 m/s, 138° | - | - |
| 1777776604 | 15° C | 41% | 1015.9 hPa | 0 mm | 0.89 m/s, 160° | - | - |
| 1777776317 | 15° C | 41% | 1015.9 hPa | 0 mm | 1.34 m/s, 156° | - | - |
| 1777776004 | 15° C | 40% | 1015.9 hPa | 0 mm | 1.79 m/s, 160° | - | - |
| 1777775717 | 15° C | 40% | 1015.9 hPa | 0 mm | 1.34 m/s, 174° | - | - |
| 1777775117 | 15° C | 40% | 1015.9 hPa | 0 mm | 2.68 m/s, 154° | - | - |
| 1777774517 | 15° C | 39% | 1016.1 hPa | 0 mm | 1.79 m/s, 150° | - | - |
| 1777773321 | 16.11° C | 39% | 1016.1 hPa | 0 mm | 1.34 m/s, 180° | - | - |
| 1777772717 | 16.11° C | 40% | 1016.1 hPa | 0 mm | 1.79 m/s, 177° | - | - |
* Rain latest hour (hover to see other rain measurements)
** Current wind speed in m/s (hover to see current wind gust speed)